owner,sensor,date,latitude,longitude,air_pressure(mBar),qcFlag 
TABS,ioos:station:wmo:42046:1,2011-06-01T00:00:00Z,27.8903,-94.0367,1020.2,11111222 
TABS,ioos:station:wmo:42046:1,2011-06-01T00:30:00Z,27.8903,-94.0367,1020.4,11111222 
TABS,ioos:station:wmo:42046:1,2011-06-01T01:00:00Z,27.8903,-94.0367,1020.74,11111222 
TABS,ioos:station:wmo:42046:1,2011-06-01T01:30:00Z,27.8903,-94.0367,1020.51,11111222 
TABS,ioos:station:wmo:42046:1,2011-06-01T02:00:00Z,27.8903,-94.0367,1020.92,11111222 
TABS,ioos:station:wmo:42046:1,2011-06-01T02:30:00Z,27.8903,-94.0367,1021.12,11111222 
TABS,ioos:station:wmo:42046:1,2011-06-01T03:00:00Z,27.8903,-94.0367,1021.4,11111222 
TABS,ioos:station:wmo:42046:1,2011-06-01T03:30:00Z,27.8903,-94.0367,1021.45,11111222 
TABS,ioos:station:wmo:42046:1,2011-06-01T04:00:00Z,27.8903,-94.0367,1021.72,11111222 
TABS,ioos:station:wmo:42046:1,2011-06-01T04:30:00Z,27.8903,-94.0367,1021.65,11111222 
TABS,ioos:station:wmo:42046:1,2011-06-01T05:00:00Z,27.8903,-94.0367,1021.66,11111222 
TABS,ioos:station:wmo:42046:1,2011-06-01T05:30:00Z,27.8903,-94.0367,1021.31,11111222 
TABS,ioos:station:wmo:42046:1,2011-06-01T06:00:00Z,27.8903,-94.0367,1021.35,11111222 
TABS,ioos:station:wmo:42046:1,2011-06-01T06:30:00Z,27.8903,-94.0367,1021.27,11111222 
TABS,ioos:station:wmo:42046:1,2011-06-01T07:00:00Z,27.8903,-94.0367,1021.45,11111222 
TABS,ioos:station:wmo:42046:1,2011-06-01T07:30:00Z,27.8903,-94.0367,1021.15,11111222 
TABS,ioos:station:wmo:42046:1,2011-06-01T08:00:00Z,27.8903,-94.0367,1021.24,11111222 
TABS,ioos:station:wmo:42046:1,2011-06-01T08:30:00Z,27.8903,-94.0367,1021.26,11111222 
TABS,ioos:station:wmo:42046:1,2011-06-01T09:00:00Z,27.8903,-94.0367,1021.57,11111222 
TABS,ioos:station:wmo:42046:1,2011-06-01T09:30:00Z,27.8903,-94.0367,1021.35,11111222 
TABS,ioos:station:wmo:42046:1,2011-06-01T10:00:00Z,27.8903,-94.0367,1021.51,11111222 
TABS,ioos:station:wmo:42046:1,2011-06-01T10:30:00Z,27.8903,-94.0367,1021.51,11111222 
TABS,ioos:station:wmo:42046:1,2011-06-01T11:00:00Z,27.8903,-94.0367,1021.56,11111222 
TABS,ioos:station:wmo:42046:1,2011-06-01T11:30:00Z,27.8903,-94.0367,1021.4,11111222 
TABS,ioos:station:wmo:42046:1,2011-06-01T12:00:00Z,27.8903,-94.0367,1021.69,11111222 
TABS,ioos:station:wmo:42046:1,2011-06-01T12:30:00Z,27.8903,-94.0367,1021.82,11111222 
TABS,ioos:station:wmo:42046:1,2011-06-01T13:00:00Z,27.8903,-94.0367,1022.05,11111222 
TABS,ioos:station:wmo:42046:1,2011-06-01T13:30:00Z,27.8903,-94.0367,1022.29,11111222 
TABS,ioos:station:wmo:42046:1,2011-06-01T14:00:00Z,27.8903,-94.0367,1022.65,11111222 
TABS,ioos:station:wmo:42046:1,2011-06-01T14:30:00Z,27.8903,-94.0367,1022.86,11111222 
TABS,ioos:station:wmo:42046:1,2011-06-01T15:00:00Z,27.8903,-94.0367,1022.62,11111222 
TABS,ioos:station:wmo:42046:1,2011-06-01T15:30:00Z,27.8903,-94.0367,1022.56,11111222 
TABS,ioos:station:wmo:42046:1,2011-06-01T16:00:00Z,27.8903,-94.0367,1022.85,11111222 
TABS,ioos:station:wmo:42046:1,2011-06-01T16:30:00Z,27.8903,-94.0367,1022.87,11111222 
TABS,ioos:station:wmo:42046:1,2011-06-01T17:00:00Z,27.8903,-94.0367,1022.74,11111222 
TABS,ioos:station:wmo:42046:1,2011-06-01T17:30:00Z,27.8903,-94.0367,1022.61,11111222 
TABS,ioos:station:wmo:42046:1,2011-06-01T18:00:00Z,27.8903,-94.0367,1022.1,11111222 
TABS,ioos:station:wmo:42046:1,2011-06-01T18:30:00Z,27.8903,-94.0367,1021.89,11111222 
TABS,ioos:station:wmo:42046:1,2011-06-01T19:00:00Z,27.8903,-94.0367,1021.44,11111222 
TABS,ioos:station:wmo:42046:1,2011-06-01T19:30:00Z,27.8903,-94.0367,1021.17,11111222 
TABS,ioos:station:wmo:42046:1,2011-06-01T20:00:00Z,27.8903,-94.0367,1021.05,11111222 
TABS,ioos:station:wmo:42046:1,2011-06-01T20:30:00Z,27.8903,-94.0367,1020.84,11111222 
TABS,ioos:station:wmo:42046:1,2011-06-01T21:00:00Z,27.8903,-94.0367,1020.42,11111222 
TABS,ioos:station:wmo:42046:1,2011-06-01T21:30:00Z,27.8903,-94.0367,1019.91,11111222 
TABS,ioos:station:wmo:42046:1,2011-06-01T22:00:00Z,27.8903,-94.0367,1019.68,11111222 
TABS,ioos:station:wmo:42046:1,2011-06-01T22:30:00Z,27.8903,-94.0367,1019.57,11111222 
TABS,ioos:station:wmo:42046:1,2011-06-01T23:00:00Z,27.8903,-94.0367,1019.24,11111222 
TABS,ioos:station:wmo:42046:1,2011-06-01T23:30:00Z,27.8903,-94.0367,1019.01,11111222 
TABS,ioos:station:wmo:42046:1,2011-06-02T00:00:00Z,27.8903,-94.0367,1018.9,11111222 
TABS,ioos:station:wmo:42046:1,2011-06-02T00:30:00Z,27.8903,-94.0367,1018.96,11111222 
TABS,ioos:station:wmo:42046:1,2011-06-02T01:00:00Z,27.8903,-94.0367,1018.86,11111222 
TABS,ioos:station:wmo:42046:1,2011-06-02T01:30:00Z,27.8903,-94.0367,1018.89,11111222 
TABS,ioos:station:wmo:42046:1,2011-06-02T02:00:00Z,27.8903,-94.0367,1018.92,11111222 
TABS,ioos:station:wmo:42046:1,2011-06-02T02:30:00Z,27.8903,-94.0367,1019.03,11111222 
TABS,ioos:station:wmo:42046:1,2011-06-02T03:00:00Z,27.8903,-94.0367,1019.13,11111222 
TABS,ioos:station:wmo:42046:1,2011-06-02T03:30:00Z,27.8903,-94.0367,1018.88,11111222 
TABS,ioos:station:wmo:42046:1,2011-06-02T04:00:00Z,27.8903,-94.0367,1018.62,11111222 
TABS,ioos:station:wmo:42046:1,2011-06-02T04:30:00Z,27.8903,-94.0367,1018.75,11111222 
TABS,ioos:station:wmo:42046:1,2011-06-02T05:00:00Z,27.8903,-94.0367,1018.65,11111222 
TABS,ioos:station:wmo:42046:1,2011-06-02T05:30:00Z,27.8903,-94.0367,1018.65,11111222 
TABS,ioos:station:wmo:42046:1,2011-06-02T06:00:00Z,27.8903,-94.0367,1018.4,11111222 
TABS,ioos:station:wmo:42046:1,2011-06-02T06:30:00Z,27.8903,-94.0367,1018.22,11111222 
TABS,ioos:station:wmo:42046:1,2011-06-02T07:00:00Z,27.8903,-94.0367,1018.04,11111222 
TABS,ioos:station:wmo:42046:1,2011-06-02T07:30:00Z,27.8903,-94.0367,1017.97,11111222 
TABS,ioos:station:wmo:42046:1,2011-06-02T08:00:00Z,27.8903,-94.0367,1017.68,11111222 
TABS,ioos:station:wmo:42046:1,2011-06-02T08:30:00Z,27.8903,-94.0367,1017.25,11111222 
TABS,ioos:station:wmo:42046:1,2011-06-02T09:00:00Z,27.8903,-94.0367,1017.45,11111222 
TABS,ioos:station:wmo:42046:1,2011-06-02T09:30:00Z,27.8903,-94.0367,1017.39,11111222 
TABS,ioos:station:wmo:42046:1,2011-06-02T10:00:00Z,27.8903,-94.0367,1017.32,11111222 
TABS,ioos:station:wmo:42046:1,2011-06-02T10:30:00Z,27.8903,-94.0367,1017.37,11111222 
TABS,ioos:station:wmo:42046:1,2011-06-02T11:00:00Z,27.8903,-94.0367,1017.74,11111222 
TABS,ioos:station:wmo:42046:1,2011-06-02T11:30:00Z,27.8903,-94.0367,1018.21,11111222 
TABS,ioos:station:wmo:42046:1,2011-06-02T12:00:00Z,27.8903,-94.0367,1018.34,11111222 
TABS,ioos:station:wmo:42046:1,2011-06-02T12:30:00Z,27.8903,-94.0367,1018.57,11111222 
TABS,ioos:station:wmo:42046:1,2011-06-02T13:00:00Z,27.8903,-94.0367,1019.1,11111222 
TABS,ioos:station:wmo:42046:1,2011-06-02T13:30:00Z,27.8903,-94.0367,1019.11,11111222 
TABS,ioos:station:wmo:42046:1,2011-06-02T14:00:00Z,27.8903,-94.0367,1018.97,11111222 
TABS,ioos:station:wmo:42046:1,2011-06-02T14:30:00Z,27.8903,-94.0367,1018.25,11111222 
TABS,ioos:station:wmo:42046:1,2011-06-02T15:00:00Z,27.8903,-94.0367,1017.65,11111222 
TABS,ioos:station:wmo:42046:1,2011-06-02T15:30:00Z,27.8903,-94.0367,1017.98,11111222 
TABS,ioos:station:wmo:42046:1,2011-06-02T16:00:00Z,27.8903,-94.0367,1017.8,11111222 
TABS,ioos:station:wmo:42046:1,2011-06-02T16:30:00Z,27.8903,-94.0367,1017.69,11111222 
TABS,ioos:station:wmo:42046:1,2011-06-02T17:00:00Z,27.8903,-94.0367,1017.48,11111222 
TABS,ioos:station:wmo:42046:1,2011-06-02T17:30:00Z,27.8903,-94.0367,1017.27,11111222 
TABS,ioos:station:wmo:42046:1,2011-06-02T18:00:00Z,27.8903,-94.0367,1017.12,11111222 
TABS,ioos:station:wmo:42046:1,2011-06-02T18:30:00Z,27.8903,-94.0367,1016.8,11111222 
TABS,ioos:station:wmo:42046:1,2011-06-02T19:00:00Z,27.8903,-94.0367,1016.44,11111222 
TABS,ioos:station:wmo:42046:1,2011-06-02T19:30:00Z,27.8903,-94.0367,1016.29,11111222 
TABS,ioos:station:wmo:42046:1,2011-06-02T20:00:00Z,27.8903,-94.0367,1016.0,11111222 
TABS,ioos:station:wmo:42046:1,2011-06-02T20:30:00Z,27.8903,-94.0367,1015.51,11111222 
TABS,ioos:station:wmo:42046:1,2011-06-02T21:00:00Z,27.8903,-94.0367,1015.16,11111222 
TABS,ioos:station:wmo:42046:1,2011-06-02T21:30:00Z,27.8903,-94.0367,1014.88,11111222 
TABS,ioos:station:wmo:42046:1,2011-06-02T22:00:00Z,27.8903,-94.0367,1014.63,11111222 
TABS,ioos:station:wmo:42046:1,2011-06-02T22:30:00Z,27.8903,-94.0367,1014.13,11111222 
TABS,ioos:station:wmo:42046:1,2011-06-02T23:00:00Z,27.8903,-94.0367,1014.05,11111222 
TABS,ioos:station:wmo:42046:1,2011-06-02T23:30:00Z,27.8903,-94.0367,1013.92,11111222 
TABS,ioos:station:wmo:42046:1,2011-06-03T00:00:00Z,27.8903,-94.0367,1014.0,11111222 
TABS,ioos:station:wmo:42046:1,2011-06-03T00:30:00Z,27.8903,-94.0367,1014.14,11111222 
TABS,ioos:station:wmo:42046:1,2011-06-03T01:00:00Z,27.8903,-94.0367,1014.23,11111222 
TABS,ioos:station:wmo:42046:1,2011-06-03T01:30:00Z,27.8903,-94.0367,1014.23,11111222 
TABS,ioos:station:wmo:42046:1,2011-06-03T02:00:00Z,27.8903,-94.0367,1014.39,11111222 
TABS,ioos:station:wmo:42046:1,2011-06-03T02:30:00Z,27.8903,-94.0367,1014.67,11111222 
TABS,ioos:station:wmo:42046:1,2011-06-03T03:00:00Z,27.8903,-94.0367,1015.1,11111222 
TABS,ioos:station:wmo:42046:1,2011-06-03T03:30:00Z,27.8903,-94.0367,1015.51,11111222 
TABS,ioos:station:wmo:42046:1,2011-06-03T04:00:00Z,27.8903,-94.0367,1015.65,11111222 
TABS,ioos:station:wmo:42046:1,2011-06-03T04:30:00Z,27.8903,-94.0367,1015.51,11111222 
TABS,ioos:station:wmo:42046:1,2011-06-03T05:00:00Z,27.8903,-94.0367,1015.39,11111222 
TABS,ioos:station:wmo:42046:1,2011-06-03T05:30:00Z,27.8903,-94.0367,1015.26,11111222 
TABS,ioos:station:wmo:42046:1,2011-06-03T06:00:00Z,27.8903,-94.0367,1014.9,11111222 
TABS,ioos:station:wmo:42046:1,2011-06-03T06:30:00Z,27.8903,-94.0367,1014.5,11111222 
TABS,ioos:station:wmo:42046:1,2011-06-03T07:00:00Z,27.8903,-94.0367,1014.25,11111222 
TABS,ioos:station:wmo:42046:1,2011-06-03T07:30:00Z,27.8903,-94.0367,1014.19,11111222 
TABS,ioos:station:wmo:42046:1,2011-06-03T08:00:00Z,27.8903,-94.0367,1014.16,11111222 
TABS,ioos:station:wmo:42046:1,2011-06-03T08:30:00Z,27.8903,-94.0367,1014.0,11111222 
TABS,ioos:station:wmo:42046:1,2011-06-03T09:00:00Z,27.8903,-94.0367,1014.41,11111222 
TABS,ioos:station:wmo:42046:1,2011-06-03T09:30:00Z,27.8903,-94.0367,1014.49,11111222 
TABS,ioos:station:wmo:42046:1,2011-06-03T10:00:00Z,27.8903,-94.0367,1014.38,11111222 
TABS,ioos:station:wmo:42046:1,2011-06-03T10:30:00Z,27.8903,-94.0367,1014.97,11111222 
TABS,ioos:station:wmo:42046:1,2011-06-03T11:00:00Z,27.8903,-94.0367,1015.46,11111222 
TABS,ioos:station:wmo:42046:1,2011-06-03T11:30:00Z,27.8903,-94.0367,1015.83,11111222 
TABS,ioos:station:wmo:42046:1,2011-06-03T12:00:00Z,27.8903,-94.0367,1016.14,11111222 
TABS,ioos:station:wmo:42046:1,2011-06-03T12:30:00Z,27.8903,-94.0367,1016.38,11111222 
TABS,ioos:station:wmo:42046:1,2011-06-03T13:00:00Z,27.8903,-94.0367,1016.73,11111222 
TABS,ioos:station:wmo:42046:1,2011-06-03T13:30:00Z,27.8903,-94.0367,1016.88,11111222 
TABS,ioos:station:wmo:42046:1,2011-06-03T14:00:00Z,27.8903,-94.0367,1017.04,11111222 
TABS,ioos:station:wmo:42046:1,2011-06-03T14:30:00Z,27.8903,-94.0367,1017.17,11111222 
TABS,ioos:station:wmo:42046:1,2011-06-03T15:00:00Z,27.8903,-94.0367,1017.15,11111222 
TABS,ioos:station:wmo:42046:1,2011-06-03T15:30:00Z,27.8903,-94.0367,1017.21,11111222 
TABS,ioos:station:wmo:42046:1,2011-06-03T16:00:00Z,27.8903,-94.0367,1017.27,11111222 
TABS,ioos:station:wmo:42046:1,2011-06-03T16:30:00Z,27.8903,-94.0367,1017.31,11111222 
TABS,ioos:station:wmo:42046:1,2011-06-03T17:00:00Z,27.8903,-94.0367,1017.04,11111222 
TABS,ioos:station:wmo:42046:1,2011-06-03T17:30:00Z,27.8903,-94.0367,1017.2,11111222 
TABS,ioos:station:wmo:42046:1,2011-06-03T18:00:00Z,27.8903,-94.0367,1016.97,11111222 
TABS,ioos:station:wmo:42046:1,2011-06-03T18:30:00Z,27.8903,-94.0367,1017.11,11111222 
TABS,ioos:station:wmo:42046:1,2011-06-03T19:00:00Z,27.8903,-94.0367,1016.93,11111222 
TABS,ioos:station:wmo:42046:1,2011-06-03T19:30:00Z,27.8903,-94.0367,1016.6,11111222 
TABS,ioos:station:wmo:42046:1,2011-06-03T20:00:00Z,27.8903,-94.0367,1016.52,11111222 
TABS,ioos:station:wmo:42046:1,2011-06-03T20:30:00Z,27.8903,-94.0367,1016.39,11111222 
TABS,ioos:station:wmo:42046:1,2011-06-03T21:00:00Z,27.8903,-94.0367,1016.1,11111222 
TABS,ioos:station:wmo:42046:1,2011-06-03T21:30:00Z,27.8903,-94.0367,1016.08,11111222 
TABS,ioos:station:wmo:42046:1,2011-06-03T22:00:00Z,27.8903,-94.0367,1016.08,11111222 
TABS,ioos:station:wmo:42046:1,2011-06-03T22:30:00Z,27.8903,-94.0367,1016.1,11111222 
TABS,ioos:station:wmo:42046:1,2011-06-03T23:00:00Z,27.8903,-94.0367,1016.04,11111222 
TABS,ioos:station:wmo:42046:1,2011-06-03T23:30:00Z,27.8903,-94.0367,1015.91,11111222 
TABS,ioos:station:wmo:42046:1,2011-06-04T00:00:00Z,27.8903,-94.0367,1016.17,11111222 
TABS,ioos:station:wmo:42046:1,2011-06-04T00:30:00Z,27.8903,-94.0367,1016.48,11111222 
TABS,ioos:station:wmo:42046:1,2011-06-04T01:00:00Z,27.8903,-94.0367,1016.49,11111222 
TABS,ioos:station:wmo:42046:1,2011-06-04T01:30:00Z,27.8903,-94.0367,1016.49,11111222 
TABS,ioos:station:wmo:42046:1,2011-06-04T02:00:00Z,27.8903,-94.0367,1016.62,11111222 
TABS,ioos:station:wmo:42046:1,2011-06-04T02:30:00Z,27.8903,-94.0367,1016.88,11111222 
TABS,ioos:station:wmo:42046:1,2011-06-04T03:00:00Z,27.8903,-94.0367,1017.11,11111222 
TABS,ioos:station:wmo:42046:1,2011-06-04T03:30:00Z,27.8903,-94.0367,1017.41,11111222 
TABS,ioos:station:wmo:42046:1,2011-06-04T04:00:00Z,27.8903,-94.0367,1017.66,11111222 
TABS,ioos:station:wmo:42046:1,2011-06-04T04:30:00Z,27.8903,-94.0367,1017.52,11111222 
TABS,ioos:station:wmo:42046:1,2011-06-04T05:00:00Z,27.8903,-94.0367,1017.52,11111222 
TABS,ioos:station:wmo:42046:1,2011-06-04T05:30:00Z,27.8903,-94.0367,1017.61,11111222 
TABS,ioos:station:wmo:42046:1,2011-06-04T06:00:00Z,27.8903,-94.0367,1017.55,11111222 
TABS,ioos:station:wmo:42046:1,2011-06-04T06:30:00Z,27.8903,-94.0367,1017.48,11111222 
TABS,ioos:station:wmo:42046:1,2011-06-04T07:00:00Z,27.8903,-94.0367,1017.4,11111222 
TABS,ioos:station:wmo:42046:1,2011-06-04T07:30:00Z,27.8903,-94.0367,1017.2,11111222 
TABS,ioos:station:wmo:42046:1,2011-06-04T08:00:00Z,27.8903,-94.0367,1017.2,11111222 
TABS,ioos:station:wmo:42046:1,2011-06-04T08:30:00Z,27.8903,-94.0367,1017.21,11111222 
TABS,ioos:station:wmo:42046:1,2011-06-04T09:00:00Z,27.8903,-94.0367,1017.19,11111222 
TABS,ioos:station:wmo:42046:1,2011-06-04T09:30:00Z,27.8903,-94.0367,1017.24,11111222 
TABS,ioos:station:wmo:42046:1,2011-06-04T10:00:00Z,27.8903,-94.0367,1017.32,11111222 
TABS,ioos:station:wmo:42046:1,2011-06-04T10:30:00Z,27.8903,-94.0367,1017.38,11111222 
TABS,ioos:station:wmo:42046:1,2011-06-04T11:00:00Z,27.8903,-94.0367,1017.8,11111222 
TABS,ioos:station:wmo:42046:1,2011-06-04T11:30:00Z,27.8903,-94.0367,1018.05,11111222 
TABS,ioos:station:wmo:42046:1,2011-06-04T12:00:00Z,27.8903,-94.0367,1018.3,11111222 
TABS,ioos:station:wmo:42046:1,2011-06-04T12:30:00Z,27.8903,-94.0367,1018.77,11111222 
TABS,ioos:station:wmo:42046:1,2011-06-04T13:00:00Z,27.8903,-94.0367,1019.15,11111222 
TABS,ioos:station:wmo:42046:1,2011-06-04T13:30:00Z,27.8903,-94.0367,1019.41,11111222 
TABS,ioos:station:wmo:42046:1,2011-06-04T14:00:00Z,27.8903,-94.0367,1019.7,11111222 
TABS,ioos:station:wmo:42046:1,2011-06-04T14:30:00Z,27.8903,-94.0367,1019.74,11111222 
TABS,ioos:station:wmo:42046:1,2011-06-04T15:00:00Z,27.8903,-94.0367,1020.1,11111222 
TABS,ioos:station:wmo:42046:1,2011-06-04T15:30:00Z,27.8903,-94.0367,1020.19,11111222 
TABS,ioos:station:wmo:42046:1,2011-06-04T16:00:00Z,27.8903,-94.0367,1020.11,11111222 
TABS,ioos:station:wmo:42046:1,2011-06-04T16:30:00Z,27.8903,-94.0367,1020.0,11111222 
TABS,ioos:station:wmo:42046:1,2011-06-04T17:00:00Z,27.8903,-94.0367,1019.93,11111222 
TABS,ioos:station:wmo:42046:1,2011-06-04T17:30:00Z,27.8903,-94.0367,1019.9,11111222 
TABS,ioos:station:wmo:42046:1,2011-06-04T18:00:00Z,27.8903,-94.0367,1019.75,11111222 
TABS,ioos:station:wmo:42046:1,2011-06-04T18:30:00Z,27.8903,-94.0367,1019.43,11111222 
TABS,ioos:station:wmo:42046:1,2011-06-04T19:00:00Z,27.8903,-94.0367,1019.36,11111222 
TABS,ioos:station:wmo:42046:1,2011-06-04T19:30:00Z,27.8903,-94.0367,1019.28,11111222 
TABS,ioos:station:wmo:42046:1,2011-06-04T20:00:00Z,27.8903,-94.0367,1019.44,11111222 
TABS,ioos:station:wmo:42046:1,2011-06-04T20:30:00Z,27.8903,-94.0367,1019.33,11111222 
TABS,ioos:station:wmo:42046:1,2011-06-04T21:00:00Z,27.8903,-94.0367,1019.13,11111222 
TABS,ioos:station:wmo:42046:1,2011-06-04T21:30:00Z,27.8903,-94.0367,1018.85,11111222 
TABS,ioos:station:wmo:42046:1,2011-06-04T22:00:00Z,27.8903,-94.0367,1018.72,11111222 
TABS,ioos:station:wmo:42046:1,2011-06-04T22:30:00Z,27.8903,-94.0367,1018.58,11111222 
TABS,ioos:station:wmo:42046:1,2011-06-04T23:00:00Z,27.8903,-94.0367,1018.37,11111222 
TABS,ioos:station:wmo:42046:1,2011-06-04T23:30:00Z,27.8903,-94.0367,1018.38,11111222 
TABS,ioos:station:wmo:42046:1,2011-06-05T00:00:00Z,27.8903,-94.0367,1018.43,11111222 
TABS,ioos:station:wmo:42046:1,2011-06-05T00:30:00Z,27.8903,-94.0367,1018.62,11111222 
TABS,ioos:station:wmo:42046:1,2011-06-05T01:00:00Z,27.8903,-94.0367,1018.67,11111222 
TABS,ioos:station:wmo:42046:1,2011-06-05T01:30:00Z,27.8903,-94.0367,1018.62,11111222 
TABS,ioos:station:wmo:42046:1,2011-06-05T02:00:00Z,27.8903,-94.0367,1018.8,11111222 
TABS,ioos:station:wmo:42046:1,2011-06-05T02:30:00Z,27.8903,-94.0367,1019.04,11111222 
TABS,ioos:station:wmo:42046:1,2011-06-05T03:00:00Z,27.8903,-94.0367,1019.45,11111222 
TABS,ioos:station:wmo:42046:1,2011-06-05T03:30:00Z,27.8903,-94.0367,1019.46,11111222 
TABS,ioos:station:wmo:42046:1,2011-06-05T04:00:00Z,27.8903,-94.0367,1019.23,11111222 
TABS,ioos:station:wmo:42046:1,2011-06-05T04:30:00Z,27.8903,-94.0367,1019.17,11111222 
TABS,ioos:station:wmo:42046:1,2011-06-05T05:00:00Z,27.8903,-94.0367,1019.32,11111222 
TABS,ioos:station:wmo:42046:1,2011-06-05T05:30:00Z,27.8903,-94.0367,1018.97,11111222 
TABS,ioos:station:wmo:42046:1,2011-06-05T06:00:00Z,27.8903,-94.0367,1018.84,11111222 
TABS,ioos:station:wmo:42046:1,2011-06-05T06:30:00Z,27.8903,-94.0367,1018.64,11111222 
TABS,ioos:station:wmo:42046:1,2011-06-05T07:00:00Z,27.8903,-94.0367,1018.22,11111222 
TABS,ioos:station:wmo:42046:1,2011-06-05T07:30:00Z,27.8903,-94.0367,1018.0,11111222 
TABS,ioos:station:wmo:42046:1,2011-06-05T08:00:00Z,27.8903,-94.0367,1017.9,11111222 
TABS,ioos:station:wmo:42046:1,2011-06-05T08:30:00Z,27.8903,-94.0367,1018.09,11111222 
TABS,ioos:station:wmo:42046:1,2011-06-05T09:00:00Z,27.8903,-94.0367,1018.33,11111222 
TABS,ioos:station:wmo:42046:1,2011-06-05T09:30:00Z,27.8903,-94.0367,1018.17,11111222 
TABS,ioos:station:wmo:42046:1,2011-06-05T10:00:00Z,27.8903,-94.0367,1018.21,11111222 
TABS,ioos:station:wmo:42046:1,2011-06-05T10:30:00Z,27.8903,-94.0367,1018.33,11111222 
TABS,ioos:station:wmo:42046:1,2011-06-05T11:00:00Z,27.8903,-94.0367,1018.3,11111222 
TABS,ioos:station:wmo:42046:1,2011-06-05T11:30:00Z,27.8903,-94.0367,1018.94,11111222 
TABS,ioos:station:wmo:42046:1,2011-06-05T12:00:00Z,27.8903,-94.0367,1019.1,11111222 
TABS,ioos:station:wmo:42046:1,2011-06-05T12:30:00Z,27.8903,-94.0367,1019.03,11111222 
TABS,ioos:station:wmo:42046:1,2011-06-05T13:00:00Z,27.8903,-94.0367,1019.02,11111222 
TABS,ioos:station:wmo:42046:1,2011-06-05T13:30:00Z,27.8903,-94.0367,1019.2,11111222 
TABS,ioos:station:wmo:42046:1,2011-06-05T14:00:00Z,27.8903,-94.0367,1019.49,11111222 
TABS,ioos:station:wmo:42046:1,2011-06-05T14:30:00Z,27.8903,-94.0367,1019.4,11111222 
TABS,ioos:station:wmo:42046:1,2011-06-05T15:00:00Z,27.8903,-94.0367,1019.32,11111222 
TABS,ioos:station:wmo:42046:1,2011-06-05T15:30:00Z,27.8903,-94.0367,1019.22,11111222 
TABS,ioos:station:wmo:42046:1,2011-06-05T16:00:00Z,27.8903,-94.0367,1019.13,11111222 
TABS,ioos:station:wmo:42046:1,2011-06-05T16:30:00Z,27.8903,-94.0367,1018.87,11111222 
TABS,ioos:station:wmo:42046:1,2011-06-05T17:00:00Z,27.8903,-94.0367,1018.78,11111222 
TABS,ioos:station:wmo:42046:1,2011-06-05T17:30:00Z,27.8903,-94.0367,1018.76,11111222 
TABS,ioos:station:wmo:42046:1,2011-06-05T18:00:00Z,27.8903,-94.0367,1018.27,11111222 
TABS,ioos:station:wmo:42046:1,2011-06-05T18:30:00Z,27.8903,-94.0367,1018.24,11111222 
TABS,ioos:station:wmo:42046:1,2011-06-05T19:00:00Z,27.8903,-94.0367,1017.92,11111222 
TABS,ioos:station:wmo:42046:1,2011-06-05T19:30:00Z,27.8903,-94.0367,1017.62,11111222 
TABS,ioos:station:wmo:42046:1,2011-06-05T20:00:00Z,27.8903,-94.0367,1017.3,11111222 
TABS,ioos:station:wmo:42046:1,2011-06-05T20:30:00Z,27.8903,-94.0367,1016.97,11111222 
TABS,ioos:station:wmo:42046:1,2011-06-05T21:00:00Z,27.8903,-94.0367,1016.78,11111222 
TABS,ioos:station:wmo:42046:1,2011-06-05T21:30:00Z,27.8903,-94.0367,1016.37,11111222 
TABS,ioos:station:wmo:42046:1,2011-06-05T22:00:00Z,27.8903,-94.0367,1015.72,11111222 
TABS,ioos:station:wmo:42046:1,2011-06-05T22:30:00Z,27.8903,-94.0367,1015.63,11111222 
TABS,ioos:station:wmo:42046:1,2011-06-05T23:00:00Z,27.8903,-94.0367,1015.41,11111222 
TABS,ioos:station:wmo:42046:1,2011-06-05T23:30:00Z,27.8903,-94.0367,1015.19,11111222 
TABS,ioos:station:wmo:42046:1,2011-06-06T00:00:00Z,27.8903,-94.0367,1015.22,11111222 
TABS,ioos:station:wmo:42046:1,2011-06-06T00:30:00Z,27.8903,-94.0367,1015.33,11111222 
TABS,ioos:station:wmo:42046:1,2011-06-06T01:00:00Z,27.8903,-94.0367,1015.56,11111222 
TABS,ioos:station:wmo:42046:1,2011-06-06T01:30:00Z,27.8903,-94.0367,1015.73,11111222 
TABS,ioos:station:wmo:42046:1,2011-06-06T02:00:00Z,27.8903,-94.0367,1015.85,11111222 
TABS,ioos:station:wmo:42046:1,2011-06-06T02:30:00Z,27.8903,-94.0367,1015.97,11111222 
TABS,ioos:station:wmo:42046:1,2011-06-06T03:00:00Z,27.8903,-94.0367,1016.1,11111222 
TABS,ioos:station:wmo:42046:1,2011-06-06T03:30:00Z,27.8903,-94.0367,1016.25,11111222 
TABS,ioos:station:wmo:42046:1,2011-06-06T04:00:00Z,27.8903,-94.0367,1016.06,11111222 
TABS,ioos:station:wmo:42046:1,2011-06-06T04:30:00Z,27.8903,-94.0367,1015.9,11111222 
TABS,ioos:station:wmo:42046:1,2011-06-06T05:00:00Z,27.8903,-94.0367,1015.8,11111222 
TABS,ioos:station:wmo:42046:1,2011-06-06T05:30:00Z,27.8903,-94.0367,1015.69,11111222 
TABS,ioos:station:wmo:42046:1,2011-06-06T06:00:00Z,27.8903,-94.0367,1015.47,11111222 
TABS,ioos:station:wmo:42046:1,2011-06-06T06:30:00Z,27.8903,-94.0367,1015.0,11111222 
TABS,ioos:station:wmo:42046:1,2011-06-06T07:00:00Z,27.8903,-94.0367,1014.56,11111222 
TABS,ioos:station:wmo:42046:1,2011-06-06T07:30:00Z,27.8903,-94.0367,1014.47,11111222 
TABS,ioos:station:wmo:42046:1,2011-06-06T08:00:00Z,27.8903,-94.0367,1014.34,11111222 
TABS,ioos:station:wmo:42046:1,2011-06-06T08:30:00Z,27.8903,-94.0367,1014.55,11111222 
TABS,ioos:station:wmo:42046:1,2011-06-06T09:00:00Z,27.8903,-94.0367,1015.15,11111222 
TABS,ioos:station:wmo:42046:1,2011-06-06T09:30:00Z,27.8903,-94.0367,1014.57,11111222 
TABS,ioos:station:wmo:42046:1,2011-06-06T10:00:00Z,27.8903,-94.0367,1014.09,11111222 
TABS,ioos:station:wmo:42046:1,2011-06-06T10:30:00Z,27.8903,-94.0367,1013.33,11111222 
TABS,ioos:station:wmo:42046:1,2011-06-06T11:00:00Z,27.8903,-94.0367,1014.05,11111222 
TABS,ioos:station:wmo:42046:1,2011-06-06T11:30:00Z,27.8903,-94.0367,1014.71,11111222 
TABS,ioos:station:wmo:42046:1,2011-06-06T12:00:00Z,27.8903,-94.0367,1014.86,11111222 
TABS,ioos:station:wmo:42046:1,2011-06-06T12:30:00Z,27.8903,-94.0367,1014.75,11111222 
TABS,ioos:station:wmo:42046:1,2011-06-06T13:00:00Z,27.8903,-94.0367,1015.15,11111222 
TABS,ioos:station:wmo:42046:1,2011-06-06T13:30:00Z,27.8903,-94.0367,1015.36,11111222 
TABS,ioos:station:wmo:42046:1,2011-06-06T14:00:00Z,27.8903,-94.0367,1015.45,11111222 
TABS,ioos:station:wmo:42046:1,2011-06-06T14:30:00Z,27.8903,-94.0367,1015.35,11111222 
TABS,ioos:station:wmo:42046:1,2011-06-06T15:00:00Z,27.8903,-94.0367,1015.43,11111222 
TABS,ioos:station:wmo:42046:1,2011-06-06T15:30:00Z,27.8903,-94.0367,1015.42,11111222 
TABS,ioos:station:wmo:42046:1,2011-06-06T16:00:00Z,27.8903,-94.0367,1015.47,11111222 
TABS,ioos:station:wmo:42046:1,2011-06-06T16:30:00Z,27.8903,-94.0367,1015.36,11111222 
TABS,ioos:station:wmo:42046:1,2011-06-06T17:00:00Z,27.8903,-94.0367,1015.25,11111222 
TABS,ioos:station:wmo:42046:1,2011-06-06T17:30:00Z,27.8903,-94.0367,1015.14,11111222 
TABS,ioos:station:wmo:42046:1,2011-06-06T18:00:00Z,27.8903,-94.0367,1015.01,11111222 
TABS,ioos:station:wmo:42046:1,2011-06-06T18:30:00Z,27.8903,-94.0367,1014.81,11111222 